FW0135 Weather Reports


Display with metric or nautical units.
time (UTC)temp
F
wind
direction
speed
MPH
gust
MPH
rain 1hr
in
rain 24hr
in
rain mn
in
humidity
%
barometer
mb
20260901210424 66 74 0.0 0.0 0.00 0.35 0.35 92 1003.8
20260901205918 66 74 0.0 0.0 0.00 0.35 0.35 92 1003.6
20260901205412 66 74 0.0 0.0 0.00 0.35 0.35 92 1003.8
20260901204906 66 74 0.0 0.0 0.00 0.35 0.35 92 1003.7
20260901204402 66 74 0.0 0.0 0.00 0.35 0.35 92 1003.6
20260901203348 66 74 0.0 0.0 0.00 0.35 0.35 92 1003.4
20260901202336 66 74 0.0 0.0 0.00 0.35 0.35 92 1003.6
20260901201829 66 74 0.0 0.0 0.00 0.35 0.35 92 1003.5
20260901201324 66 74 0.0 0.0 0.00 0.35 0.35 92 1003.4
20260901200817 66 74 0.0 0.0 0.00 0.35 0.35 92 1003.3
20260901200311 66 74 0.0 0.0 0.00 0.35 0.35 92 1003.3
20260901195806 66 74 0.0 0.0 0.00 0.35 0.35 91 1003.5
20260901195300 66 74 0.0 0.0 0.00 0.35 0.35 91 1003.4
20260901194754 66 74 0.0 0.0 0.00 0.35 0.35 92 1003.6
20260901194248 66 74 0.0 0.0 0.00 0.35 0.35 92 1003.6
20260901193236 65 74 0.0 0.0 0.00 0.35 0.35 92 1003.5
20260901192730 65 74 0.0 0.0 0.00 0.35 0.35 92 1003.4
20260901192224 65 74 0.0 0.0 0.00 0.35 0.35 92 1003.5
20260901191717 65 74 0.0 0.0 0.00 0.35 0.35 92 1003.6
20260901191211 65 74 0.0 0.0 0.00 0.35 0.35 92 1003.7
20260901190706 65 74 0.0 0.0 0.00 0.35 0.35 92 1003.7
20260901190200 65 74 0.0 0.0 0.00 0.35 0.35 92 1003.8
20260901185654 64 74 0.0 0.0 0.00 0.35 0.35 92 1003.9
20260901185148 65 74 0.0 0.0 0.00 0.35 0.35 92 1003.9
20260901184642 65 74 0.0 0.0 0.00 0.35 0.35 92 1003.9
20260901184136 64 74 0.0 0.0 0.00 0.35 0.35 92 1003.8
20260901183630 64 74 0.0 0.0 0.01 0.35 0.35 92 1003.8
20260901183124 64 74 0.0 0.0 0.01 0.35 0.35 92 1003.8
20260901182618 64 74 0.0 0.0 0.01 0.35 0.35 92 1003.8
20260901182112 64 74 0.0 0.0 0.01 0.35 0.35 92 1003.8
20260901181606 64 74 0.0 0.0 0.01 0.35 0.35 93 1003.7
20260901181100 64 74 0.0 0.0 0.01 0.35 0.35 93 1003.7
20260901180554 64 74 0.0 0.0 0.01 0.35 0.35 93 1003.7
20260901175541 63 74 0.0 0.0 0.01 0.35 0.35 93 1003.6
20260901175035 63 74 0.0 0.0 0.01 0.35 0.35 93 1003.7
20260901174530 63 74 0.0 0.0 0.01 0.35 0.35 92 1003.7
20260901174024 63 74 0.0 0.0 0.00 0.34 0.35 93 1003.6
20260901173518 63 74 0.0 0.0 0.00 0.34 0.34 93 1003.5
20260901173011 63 74 0.0 0.0 0.00 0.34 0.34 93 1003.6
20260901172506 62 74 0.0 0.0 0.00 0.34 0.34 93 1003.5
20260901172000 62 74 0.0 0.0 0.00 0.34 0.34 93 1003.5
20260901171453 62 74 0.0 0.0 0.00 0.34 0.34 93 1003.5
20260901165940 62 74 0.0 0.0 0.00 0.34 0.34 93 1003.2
20260901165426 62 74 0.0 0.0 0.00 0.34 0.34 93 1003.4
20260901164920 62 74 0.0 0.0 0.01 0.34 0.34 93 1003.2
20260901164414 62 74 0.0 0.0 0.01 0.34 0.34 93 1003.3
20260901163908 62 74 0.0 0.0 0.01 0.34 0.34 93 1003.4
20260901162855 61 74 0.0 0.0 0.01 0.34 0.34 93 1003.8
20260901162352 61 74 0.0 0.0 0.01 0.34 0.34 93 1003.8
20260901161846 61 74 0.0 0.0 0.01 0.34 0.34 93 1003.8
20260901161345 61 74 0.0 0.0 0.01 0.34 0.34 93 1003.9
20260901160845 61 74 0.0 0.0 0.01 0.34 0.34 93 1003.9
20260901160347 61 74 0.0 0.0 0.01 0.34 0.34 93 1004.0
20260901155845 61 74 0.0 0.0 0.01 0.34 0.34 93 1004.0
20260901154344 61 74 0.0 0.0 0.00 0.33 0.33 93 1004.2
20260901152842 61 74 0.0 0.0 0.00 0.33 0.33 93 1003.9
20260901152345 61 74 0.0 0.0 0.00 0.33 0.33 93 1003.9
20260901151839 61 74 0.0 0.0 0.00 0.33 0.33 93 1003.8
20260901151338 61 74 0.0 0.0 0.00 0.33 0.33 93 1003.7
20260901150838 61 74 0.0 0.0 0.00 0.33 0.33 93 1003.7
20260901150335 61 74 0.0 0.0 0.00 0.33 0.33 93 1003.6
20260901145837 61 74 0.0 0.0 0.00 0.33 0.33 92 1003.6
20260901145332 61 74 0.0 0.0 0.00 0.33 0.33 92 1003.6
20260901144832 61 74 0.0 0.0 0.00 0.33 0.33 92 1003.7
20260901144333 61 74 0.0 0.0 0.01 0.33 0.33 92 1003.8
20260901143832 61 74 0.0 0.0 0.01 0.33 0.33 92 1003.9
20260901143332 61 74 0.0 0.0 0.02 0.33 0.33 92 1003.8
20260901142831 61 74 0.0 0.0 0.02 0.33 0.33 92 1003.8
20260901142331 61 74 0.0 0.0 0.02 0.33 0.33 92 1003.7
20260901141832 61 74 0.0 0.0 0.03 0.33 0.33 92 1003.8
20260901141333 61 74 0.0 0.0 0.03 0.33 0.33 92 1003.8
20260901134831 61 74 0.0 0.0 0.09 0.33 0.33 93 1003.8
20260901133831 60 74 0.0 0.0 0.11 0.32 0.32 93 1003.6
20260901133332 60 74 0.0 0.0 0.13 0.31 0.31 93 1003.6
20260901132829 60 74 0.0 0.0 0.16 0.31 0.31 92 1003.6
20260901132323 60 74 0.0 0.0 0.17 0.31 0.31 92 1003.6
20260901131817 60 74 0.0 0.0 0.17 0.30 0.30 92 1003.6
20260901131311 60 74 0.0 0.0 0.18 0.30 0.30 92 1003.7
20260901130300 60 74 0.0 0.0 0.18 0.28 0.28 92 1003.9
20260901125754 60 74 0.0 0.0 0.17 0.26 0.27 92 1003.9
20260901125248 60 74 0.0 0.0 0.17 0.25 0.25 92 1004.0
20260901124742 60 74 0.0 0.0 0.17 0.23 0.24 92 1004.2
20260901124236 60 74 0.0 0.0 0.17 0.23 0.22 92 1004.3
20260901123729 60 74 0.0 0.0 0.16 0.21 0.20 92 1004.3
20260901122713 60 74 0.0 0.0 0.14 0.16 0.15 92 1004.4
20260901122207 60 74 0.0 0.0 0.14 0.15 0.14 92 1004.5
20260901121702 60 74 0.0 0.0 0.13 0.14 0.13 91 1004.4
20260901120143 60 74 0.0 0.0 0.10 0.11 0.10 91 1004.5
20260901115638 60 74 0.0 0.0 0.09 0.10 0.09 91 1004.4
20260901115132 60 74 0.0 0.0 0.07 0.08 0.08 91 1004.5
20260901114625 60 74 0.0 0.0 0.05 0.06 0.06 91 1004.4
20260901114120 60 74 0.0 0.0 0.05 0.06 0.05 91 1004.3
20260901113613 60 74 0.0 0.0 0.04 0.05 0.04 90 1004.2
20260901113107 60 74 0.0 0.0 0.02 0.03 0.03 90 1004.1
20260901112601 60 74 0.0 0.0 0.01 0.02 0.01 90 1004.0
20260901112055 61 74 0.0 0.0 0.00 0.01 0.00 90 1003.8
20260901111550 61 74 0.0 0.0 0.00 0.01 0.00 90 1003.6
20260901111044 61 74 0.0 0.0 0.00 0.01 0.00 90 1003.5
20260901110537 61 74 0.0 0.0 0.00 0.01 0.00 90 1003.6
20260901110031 61 74 0.0 0.0 0.00 0.01 0.00 90 1003.5
20260901105526 61 74 0.0 0.0 0.00 0.01 0.00 90 1003.4
20260901105020 61 74 0.0 0.0 0.00 0.01 0.00 90 1003.4
20260901104513 61 74 0.0 0.0 0.00 0.01 0.00 90 1003.6
20260901104008 61 74 0.0 0.0 0.00 0.01 0.00 90 1003.4
20260901103502 61 74 0.0 0.0 0.00 0.01 0.00 90 1003.4
20260901102956 60 74 0.0 0.0 0.00 0.01 0.00 90 1003.4
20260901102449 60 74 0.0 0.0 0.00 0.01 0.00 90 1003.4
20260901101943 60 74 0.0 0.0 0.00 0.01 0.00 90 1003.3
20260901100932 60 74 0.0 0.0 0.00 0.01 0.00 90 1003.2
20260901100425 60 74 0.0 0.0 0.00 0.01 0.00 90 1003.1
20260901095919 60 74 0.0 0.0 0.00 0.01 0.00 90 1003.0
20260901095413 60 74 0.0 0.0 0.00 0.01 0.00 90 1002.9
20260901094907 60 74 0.0 0.0 0.00 0.01 0.00 90 1002.8
20260901094402 60 74 0.0 0.0 0.00 0.01 0.00 90 1002.7
20260901093856 60 74 0.0 0.0 0.00 0.01 0.00 90 1002.8
20260901093349 60 74 0.0 0.0 0.00 0.01 0.00 90 1002.8
20260901092843 60 74 0.0 0.0 0.00 0.01 0.00 90 1002.7
20260901092337 60 74 0.0 0.0 0.00 0.01 0.00 90 1002.8
20260901091832 60 74 0.0 0.0 0.00 0.01 0.00 90 1002.8
20260901091326 60 74 0.0 0.0 0.00 0.01 0.00 90 1002.9
20260901090819 60 74 0.0 0.0 0.00 0.01 0.00 90 1002.8
20260901085305 60 74 0.0 0.0 0.00 0.01 0.00 90 1002.9
20260901084757 60 74 0.0 0.0 0.00 0.01 0.00 90 1002.9
20260901084249 60 74 0.0 0.0 0.00 0.01 0.00 90 1002.9
20260901083748 60 74 0.0 0.0 0.00 0.01 0.00 90 1002.9
20260901083247 60 74 0.0 0.0 0.00 0.01 0.00 90 1002.9
20260901082745 60 74 0.0 0.0 0.00 0.01 0.00 90 1002.8
20260901082245 60 74 0.0 0.0 0.00 0.01 0.00 90 1002.9
20260901081746 60 74 0.0 0.0 0.00 0.01 0.00 91 1003.0
20260901081242 60 74 0.0 0.0 0.00 0.01 0.00 91 1003.0
20260901080242 60 74 0.0 0.0 0.00 0.01 0.00 91 1003.0
20260901075740 60 74 0.0 0.0 0.00 0.01 0.00 91 1003.0
20260901075238 60 74 0.0 0.0 0.00 0.01 0.00 91 1003.1
20260901074737 60 74 0.0 0.0 0.00 0.01 0.00 91 1003.0
20260901074235 60 74 0.0 0.0 0.00 0.01 0.00 91 1003.0
20260901073733 60 74 0.0 0.0 0.00 0.01 0.00 90 1003.1
20260901073232 60 74 0.0 0.0 0.00 0.01 0.00 90 1003.1
20260901072228 60 74 0.0 0.0 0.00 0.01 0.00 90 1003.2
20260901071730 60 74 0.0 0.0 0.00 0.01 0.00 90 1003.3
20260901071226 60 74 0.0 0.0 0.00 0.01 0.00 90 1003.3
20260901070725 60 74 0.0 0.0 0.00 0.01 0.00 90 1003.5
20260901070225 60 74 0.0 0.0 0.00 0.01 0.00 90 1003.4
20260901065726 60 74 0.0 0.0 0.00 0.01 0.00 90 1003.4
20260901065225 60 74 0.0 0.0 0.00 0.01 0.00 90 1003.3
20260901064724 60 74 0.0 0.0 0.00 0.01 0.00 90 1003.2
20260901064225 60 74 0.0 0.0 0.00 0.01 0.00 90 1003.3
20260901063726 60 74 0.0 0.0 0.00 0.01 0.00 90 1003.6
20260901063225 60 74 0.0 0.0 0.00 0.01 0.00 90 1003.6
20260901062725 60 74 0.0 0.0 0.00 0.01 0.00 90 1003.4
20260901062226 60 74 0.0 0.0 0.00 0.01 0.00 90 1003.6
20260901061725 60 74 0.0 0.0 0.00 0.01 0.00 90 1003.6
20260901061226 60 74 0.0 0.0 0.00 0.01 0.00 90 1003.6
20260901060725 60 74 0.0 0.0 0.00 0.01 0.00 90 1003.6
20260901060225 60 74 0.0 0.0 0.00 0.01 0.00 90 1003.5
20260901055725 60 74 0.0 0.0 0.00 0.01 0.00 90 1003.4
20260901055225 61 74 0.0 0.0 0.00 0.01 0.00 90 1003.5
20260901054723 60 74 0.0 0.0 0.00 0.01 0.00 90 1003.5
20260901054217 60 74 0.0 0.0 0.00 0.01 0.00 90 1003.5
20260901053710 60 74 0.0 0.0 0.00 0.01 0.00 90 1003.6
20260901053204 60 74 0.0 0.0 0.00 0.01 0.00 90 1003.7
20260901052658 61 74 0.0 0.0 0.00 0.01 0.00 90 1003.6
20260901052200 61 74 0.0 0.0 0.00 0.01 0.00 90 1003.6
20260901051159 61 74 0.0 0.0 0.00 0.01 0.00 89 1003.6
20260901050659 61 74 0.0 0.0 0.00 0.01 0.00 89 1003.6
20260901050155 61 74 0.0 0.0 0.00 0.01 0.00 89 1003.7
20260901045652 61 74 0.0 0.0 0.00 0.01 0.00 89 1003.7
20260901045151 61 74 0.0 0.0 0.00 0.01 0.00 89 1003.6
20260901044649 61 74 0.0 0.0 0.00 0.01 0.00 89 1003.4
20260901044148 61 74 0.0 0.0 0.00 0.01 0.00 89 1003.4
20260901043649 61 74 0.0 0.0 0.00 0.01 0.00 89 1003.4
20260901043147 62 74 0.0 0.0 0.00 0.01 0.00 89 1003.3
20260901042645 62 74 0.0 0.0 0.00 0.01 0.00 89 1003.3
20260901042144 62 74 0.0 0.0 0.00 0.01 0.00 88 1003.3
20260901041646 62 74 0.0 0.0 0.00 0.01 0.00 88 1003.4
20260901041142 62 74 0.0 0.0 0.00 0.01 0.00 88 1003.3
20260901040641 62 74 0.0 0.0 0.00 0.01 0.00 88 1003.3
20260901040144 62 74 0.0 0.0 0.00 0.01 0.00 88 1003.2
20260901035640 62 74 0.0 0.0 0.00 0.01 0.01 88 1003.2
20260901035137 62 74 0.0 0.0 0.00 0.01 0.01 88 1003.3
20260901034633 63 74 0.0 0.0 0.00 0.01 0.01 88 1003.4
20260901034126 63 74 0.0 0.0 0.00 0.01 0.01 88 1003.5
20260901033621 63 74 0.0 0.0 0.00 0.01 0.01 87 1003.4
20260901033115 63 74 0.0 0.0 0.00 0.01 0.01 88 1003.5
20260901032609 63 74 0.0 0.0 0.00 0.01 0.01 88 1003.3
20260901032103 63 74 0.0 0.0 0.00 0.01 0.01 88 1003.3
20260901031556 63 74 0.0 0.0 0.00 0.01 0.01 87 1003.3
20260901031051 63 74 0.0 0.0 0.00 0.01 0.01 87 1003.5
20260901030545 63 74 0.0 0.0 0.00 0.01 0.01 87 1003.4
20260901030038 63 74 0.0 0.0 0.00 0.01 0.01 87 1003.4
20260901025533 63 74 0.0 0.0 0.00 0.01 0.01 87 1003.5
20260901025027 64 74 0.0 0.0 0.00 0.01 0.01 87 1003.4
20260901024521 64 74 0.0 0.0 0.00 0.01 0.01 87 1003.4
20260901024014 64 74 0.0 0.0 0.00 0.01 0.01 86 1003.5
20260901023509 64 74 0.0 0.0 0.00 0.01 0.01 86 1003.4
20260901022503 64 74 0.0 0.0 0.00 0.01 0.01 86 1003.3
20260901022003 64 74 0.0 0.0 0.00 0.01 0.01 86 1003.3
20260901021501 64 74 0.0 0.0 0.00 0.01 0.01 86 1003.3
20260901020959 65 74 0.0 0.0 0.00 0.01 0.01 85 1003.3
20260901020458 65 74 0.0 0.0 0.00 0.01 0.01 85 1003.3
20260901015957 65 74 0.0 0.0 0.00 0.01 0.01 85 1003.3
20260901014956 65 74 0.0 0.0 0.00 0.01 0.01 84 1003.4
20260901014455 65 74 0.0 0.0 0.00 0.01 0.01 84 1003.4
20260901013955 65 74 0.0 0.0 0.00 0.01 0.01 84 1003.3
20260901013455 65 74 0.0 0.0 0.00 0.01 0.01 84 1003.2
20260901012952 65 74 0.0 0.0 0.00 0.01 0.01 84 1003.3
20260901012451 65 74 0.0 0.0 0.00 0.01 0.01 84 1003.3
20260901011947 66 74 0.0 0.0 0.00 0.01 0.01 83 1003.4
20260901011446 66 74 0.0 0.0 0.00 0.01 0.01 83 1003.4
20260901010943 66 74 0.0 0.0 0.00 0.01 0.01 83 1003.5
20260901010444 66 74 0.0 0.0 0.00 0.01 0.01 82 1003.5
20260901005943 66 74 0.0 0.0 0.00 0.01 0.01 82 1003.4
20260901004940 67 74 0.0 0.0 0.00 0.01 0.01 82 1003.4
20260901004434 67 74 0.0 0.0 0.00 0.01 0.01 81 1003.4
20260901003421 67 74 0.0 0.0 0.00 0.01 0.01 81 1003.4
20260901002916 67 74 0.0 0.0 0.00 0.01 0.01 80 1003.5
20260901001903 68 74 0.0 0.0 0.00 0.01 0.01 80 1003.3
20260901000851 68 74 0.0 0.0 0.00 0.01 0.01 79 1003.3
20260901000345 69 74 0.0 0.0 0.00 0.01 0.01 78 1003.3
20260831235333 69 74 0.0 0.0 0.00 0.01 0.01 77 1003.2
20260831234827 69 74 0.0 0.0 0.00 0.01 0.01 78 1003.1
20260831234322 70 74 0.0 0.0 0.00 0.01 0.01 77 1003.1
20260831233816 70 74 0.0 0.0 0.00 0.01 0.01 76 1003.1
20260831233311 71 74 0.0 0.0 0.00 0.01 0.01 75 1003.2
20260831232803 71 74 0.0 0.0 0.00 0.01 0.01 75 1003.1
20260831232258 71 74 0.0 0.0 0.00 0.01 0.01 75 1003.2
20260831231752 72 74 0.0 0.0 0.00 0.01 0.01 73 1003.3
20260831231246 72 74 0.0 0.0 0.00 0.01 0.01 73 1003.3
20260831225730 73 74 0.0 0.0 0.00 0.01 0.01 70 1003.5
20260831225231 74 74 0.0 0.0 0.00 0.01 0.01 67 1003.4
20260831224731 74 74 0.0 0.0 0.00 0.01 0.01 68 1003.4
20260831223728 74 74 0.0 0.0 0.00 0.01 0.01 65 1003.4
20260831223227 75 74 0.0 0.0 0.00 0.01 0.01 64 1003.4
20260831220215 76 74 0.0 0.0 0.00 0.01 0.01 64 1003.3
20260831215715 76 74 0.0 0.0 0.00 0.01 0.01 63 1003.3
20260831215214 76 74 0.0 0.0 0.00 0.01 0.01 62 1003.3
20260831214716 76 74 0.0 0.0 0.00 0.01 0.01 60 1003.3
20260831214216 76 74 0.0 0.0 0.00 0.01 0.01 60 1003.2
20260831213716 76 74 0.0 0.0 0.00 0.01 0.01 61 1003.3
20260831213211 76 74 0.0 0.0 0.00 0.01 0.01 60 1003.3
20260831212711 76 74 0.0 0.0 0.00 0.01 0.01 61 1003.2
20260831211712 76 74 0.0 0.0 0.00 0.01 0.01 59 1003.2